Wind_Speed
5 5 5 5 5 5 5 4 3 3 3 3 3 3 4 4 4 4 5 5 4 5 5 4 4 4 4 4 4 4 4 4 3 3 4 5 6 7 7 7 7 7 5
4 4 5 5 5 4 4 4 3 3 3 3 3 3 3 3 3 4 4 4 4 4 4 3 4 4 4 4 3 3 3 3 3 3 3 4 6 6 6 7 6 6 6
4 4 5 5 5 4 3 3 3 3 3 2 2 2 2 2 2 2 3 2 2 3 3 4 4 3 4 3 3 3 3 3 3 3 3 3 4 5 6 6 6 6 5
4 5 5 5 5 4 4 3 3 3 3 2 2 2 1 1 0 1 1 1 1 1 2 2 2 2 3 3 3 3 3 3 3 3 3 4 5 5 5 5 6 6 5
4 5 5 5 5 5 4 4 3 3 2 2 2 2 2 1 1 1 0 1 1 1 2 2 2 2 1 2 2 3 3 2 1 2 4 4 5 5 5 5 5 5 5
5 5 5 5 5 5 5 4 3 3 3 3 3 2 2 1 1 1 1 1 2 2 2 2 2 1 1 2 1 1 2 1 1 2 4 4 4 5 5 5 5 6 5
5 5 6 6 5 5 5 5 4 4 4 3 3 2 2 2 2 2 2 2 3 3 3 2 2 2 2 2 2 1 2 2 3 2 3 4 4 4 4 4 5 5 5
6 6 6 6 5 6 5 5 4 4 4 3 3 3 3 2 2 2 2 3 3 4 4 4 3 3 2 2 3 2 3 3 4 4 3 4 5 5 5 5 5 5 6
6 7 7 6 6 6 6 5 5 4 4 4 3 3 3 3 3 3 3 3 4 4 4 4 4 4 4 3 3 3 3 3 4 5 5 5 5 5 5 5 6 6 6
7 7 7 7 7 7 7 6 5 5 5 5 5 4 4 4 4 4 4 4 5 5 5 5 5 6 5 5 4 4 4 4 4 5 6 6 6 6 6 6 6 6 6
8 8 8 8 8 8 8 7 7 6 6 6 6 5 5 5 5 5 5 5 5 6 6 6 6 6 7 7 6 5 6 6 6 6 6 6 7 7 6 7 7 7 7
9 9 9 10 10 9 9 9 8 8 7 7 7 7 6 5 5 6 6 6 6 7 6 6 6 7 7 8 7 6 6 7 6 7 7 6 6 7 7 8 8 8 8
10 11 10 10 11 10 10 10 10 9 9 8 8 7 6 7 7 7 7 7 7 7 7 7 7 7 8 8 8 7 7 7 7 6 7 7 7 7 8 9 8 8 8
11 11 12 11 11 11 11 11 10 10 10 10 9 9 8 8 8 8 8 8 8 8 7 7 7 7 8 9 8 8 8 7 7 7 7 7 7 8 8 8 8 9 9
12 12 13 12 12 12 12 12 12 12 11 11 11 10 9 9 9 10 10 10 9 9 9 9 8 8 8 8 8 8 8 8 8 8 8 7 7 8 9 9 9 9 9
12 13 14 14 13 13 12 13 13 13 13 13 12 11 11 11 11 11 11 11 11 10 10 10 10 9 9 9 8 8 8 8 8 9 9 8 8 9 9 9 9 9 9
14 14 14 14 13 14 14 13 13 14 14 14 14 14 13 13 13 13 12 12 12 12 11 11 11 10 10 10 10 9 9 9 9 9 9 9 9 9 9 10 10 10 10
15 15 15 16 15 14 14 14 14 14 15 15 15 14 14 15 15 14 14 13 13 13 13 12 12 11 11 10 10 10 10 9 9 10 9 9 10 11 11 11 11 11 11
17 16 16 17 16 15 15 15 15 15 16 15 14 15 15 16 16 15 15 15 15 14 13 13 13 13 12 11 11 11 12 11 11 10 11 10 10 11 11 11 11 12 12
17 17 16 16 16 16 16 17 17 16 16 16 15 15 15 15 16 17 17 16 17 15 14 14 13 13 13 13 13 13 12 12 12 11 12 11 11 11 11 11 12 13 13
18 18 17 17 17 17 17 18 18 18 17 16 16 16 16 17 18 19 18 17 17 16 16 15 15 15 14 14 14 14 13 12 13 13 13 13 13 12 12 13 13 13 14
18 19 18 19 19 18 18 19 19 18 17 17 17 17 17 18 19 19 19 19 19 18 17 17 17 16 15 15 14 14 13 13 13 13 13 13 13 13 13 13 13 14 14
20 20 20 19 19 19 19 19 19 18 18 18 18 18 18 18 19 19 19 20 19 19 18 18 17 18 17 17 15 14 14 14 14 13 13 14 14 14 14 14 14 14 15
21 21 21 20 20 19 19 19 19 19 18 18 18 18 18 18 18 18 19 20 19 18 17 17 18 18 18 18 17 16 15 14 14 14 14 14 14 14 14 14 15 15 15
21 21 21 20 19 19 20 20 20 20 19 18 18 18 18 18 18 18 19 19 18 18 17 18 18 18 18 18 17 17 16 15 15 14 14 14 14 15 15 16 16 16 16
21 21 21 20 20 20 21 20 20 20 19 18 18 18 18 18 19 19 19 20 20 19 19 19 19 19 19 19 18 18 18 17 16 15 15 16 16 16 17 17 17 17 17
Wind_Direction
24 22 18 15 13 19 24 25 30 37 41 39 37 44 50 51 47 46 47 59 65 74 85 85 101 109 124 131 126 122 119 128 142 154 165 181 186 191 187 188 180 183 190
16 17 13 13 10 12 16 18 27 36 39 38 38 40 50 58 57 53 51 65 80 86 97 100 113 108 126 137 128 136 136 131 135 140 163 187 186 186 180 179 178 187 194
4 4 2 1 359 358 359 7 17 28 28 30 33 34 42 53 55 52 53 73 94 104 108 117 127 123 122 128 139 138 122 120 129 143 161 175 183 185 174 175 177 185 193
352 351 353 348 344 347 355 359 1 10 16 12 11 14 15 15 29 46 55 81 108 122 112 131 142 137 134 135 142 142 137 138 148 157 172 176 180 180 172 180 189 194 200
344 342 341 337 334 336 340 343 344 349 359 353 351 353 350 323 272 265 224 155 150 152 158 155 160 146 138 138 136 150 154 149 172 192 180 181 180 179 185 182 187 197 209
333 336 338 333 326 325 323 329 331 334 337 338 338 331 330 319 279 263 240 197 190 172 181 190 176 172 157 160 177 174 181 202 222 212 194 191 192 196 195 197 209 214 219
324 324 328 327 324 317 311 315 319 326 325 326 329 321 313 303 271 245 228 215 212 204 207 206 198 191 188 189 199 250 256 241 243 245 216 207 209 202 200 203 214 224 227
321 320 317 319 320 318 309 306 307 313 314 312 310 303 293 277 254 230 218 215 216 214 215 216 208 208 204 208 219 236 256 247 236 241 237 228 224 224 220 220 229 234 233
319 318 309 311 315 315 321 304 297 298 300 299 297 292 276 267 252 235 221 219 218 220 219 221 216 211 220 223 225 241 251 251 238 240 243 244 242 237 232 237 241 243 243
314 312 308 305 308 310 313 316 310 299 295 292 290 288 273 262 253 239 230 228 223 222 225 228 226 221 227 236 239 244 247 246 245 244 243 244 243 240 243 240 239 246 246
306 305 303 299 300 303 305 306 309 300 293 288 285 282 270 262 253 244 236 234 235 232 230 230 231 231 233 240 243 244 241 244 246 246 244 246 247 245 245 244 243 247 246
301 299 298 295 295 298 299 298 297 297 291 284 280 279 269 260 256 249 239 232 233 232 235 236 237 234 234 238 241 242 244 248 249 244 244 248 251 246 245 247 250 245 243
300 298 293 291 291 292 291 290 289 290 284 279 278 271 263 261 259 252 241 235 236 238 241 242 243 240 240 243 243 243 249 251 251 248 244 249 252 250 249 252 245 248 250
298 297 292 293 291 287 287 287 286 285 283 279 272 268 263 261 255 249 248 249 243 241 245 244 243 243 246 250 248 246 250 251 252 250 249 252 255 253 254 256 254 258 259
296 295 293 294 291 288 285 285 284 279 276 276 274 270 263 257 253 249 249 248 247 248 251 250 247 244 248 253 253 252 248 249 250 249 250 256 257 254 256 258 260 260 260
294 294 294 295 294 289 284 283 283 279 276 273 272 269 265 258 255 250 247 248 249 250 251 250 247 245 247 251 254 256 250 247 248 249 249 254 258 259 258 259 260 260 261
291 292 293 294 292 288 285 283 283 281 276 271 269 266 262 259 257 250 248 249 250 253 251 249 247 246 247 249 251 252 254 254 253 253 254 257 259 258 259 258 259 261 262
288 290 291 293 290 287 286 284 285 283 280 273 266 264 260 259 257 252 249 248 250 254 253 249 247 246 247 249 251 251 254 255 257 255 261 264 262 256 255 258 259 258 259
285 287 289 286 287 285 284 283 284 285 279 274 269 263 259 257 254 250 249 249 251 254 253 250 248 247 246 247 249 249 254 257 259 257 264 267 261 256 258 262 262 261 260
287 287 286 286 285 286 286 284 284 284 278 271 270 267 260 257 253 252 251 249 251 250 250 250 248 246 245 247 248 251 254 256 257 260 262 265 262 259 263 267 265 265 264
285 286 287 287 286 286 285 283 284 284 277 271 268 268 262 256 255 253 250 249 249 248 249 249 248 247 247 248 249 252 254 254 256 258 261 264 264 263 262 263 264 266 266
283 285 286 286 286 286 284 283 282 280 276 273 269 266 263 258 259 254 251 249 247 248 248 249 248 246 245 248 251 252 251 251 253 260 265 266 264 264 262 262 266 269 269
280 280 280 283 285 285 284 283 280 277 276 273 270 267 262 260 257 259 255 250 249 245 248 248 247 245 243 246 248 252 253 255 258 260 263 265 264 265 264 264 266 270 271
277 277 276 278 282 285 285 283 279 277 277 273 268 267 265 261 259 259 257 253 244 244 243 244 247 245 244 246 249 251 255 256 256 260 262 264 265 266 266 268 268 270 272
275 275 275 277 279 282 285 283 278 277 274 272 269 267 263 261 257 258 254 249 245 243 242 243 246 246 246 247 249 251 253 256 258 260 261 261 264 266 267 269 270 271 272
273 275 275 276 277 279 282 281 280 277 274 271 268 266 262 260 259 260 257 247 246 245 244 246 246 247 247 246 248 250 252 256 258 259 260 261 264 268 270 269 271 272 274
Height
5898 5897 5896 5896 5895 5894 5893 5893 5892 5891 5890 5890 5889 5888 5887 5887 5886 5885 5884 5883 5883 5882 5882 5882 5883 5883 5883 5884 5884 5885 5885 5885 5885 5885 5885 5885 5886 5887 5887 5888 5889 5890 5891
5898 5897 5896 5895 5895 5894 5893 5893 5892 5891 5890 5889 5889 5888 5887 5886 5886 5885 5885 5883 5882 5883 5883 5883 5883 5883 5884 5884 5885 5885 5885 5885 5885 5885 5885 5886 5886 5886 5888 5889 5889 5890 5891
5898 5896 5896 5895 5894 5893 5893 5892 5891 5890 5889 5889 5888 5887 5886 5886 5885 5885 5884 5883 5883 5883 5883 5883 5883 5883 5884 5884 5885 5885 5885 5885 5885 5885 5885 5885 5886 5886 5887 5888 5889 5890 5890
5897 5896 5895 5894 5894 5893 5892 5891 5890 5889 5889 5888 5887 5887 5886 5885 5885 5885 5884 5884 5883 5883 5883 5883 5883 5884 5884 5884 5885 5885 5885 5885 5886 5885 5885 5886 5886 5887 5888 5888 5889 5890 5890
5896 5895 5894 5894 5893 5892 5891 5890 5890 5889 5888 5887 5887 5886 5885 5885 5884 5884 5884 5884 5883 5883 5883 5883 5883 5884 5884 5884 5884 5885 5885 5885 5885 5885 5885 5886 5886 5887 5888 5889 5889 5890 5890
5895 5894 5893 5893 5892 5891 5890 5890 5889 5888 5887 5886 5885 5885 5885 5884 5884 5883 5883 5883 5883 5883 5883 5883 5883 5884 5884 5884 5885 5885 5885 5885 5885 5885 5885 5885 5886 5887 5888 5888 5889 5890 5890
5894 5893 5892 5892 5891 5890 5889 5888 5887 5887 5886 5885 5884 5884 5884 5883 5883 5883 5883 5883 5883 5883 5883 5883 5883 5883 5884 5884 5884 5885 5885 5885 5885 5885 5885 5885 5886 5887 5887 5888 5888 5889 5889
5892 5892 5891 5890 5890 5889 5888 5887 5886 5885 5884 5884 5883 5883 5882 5882 5882 5882 5882 5882 5882 5882 5882 5883 5883 5883 5883 5884 5884 5884 5885 5884 5885 5885 5885 5885 5886 5886 5887 5887 5888 5888 5888
5891 5890 5889 5889 5888 5887 5886 5884 5884 5884 5883 5883 5882 5882 5881 5881 5881 5881 5881 5881 5881 5881 5881 5882 5882 5883 5883 5883 5883 5884 5884 5884 5884 5884 5885 5885 5885 5886 5886 5886 5886 5887 5887
5890 5889 5888 5887 5887 5886 5885 5884 5883 5883 5882 5881 5881 5881 5880 5879 5879 5879 5879 5879 5880 5880 5880 5880 5881 5882 5882 5882 5882 5883 5883 5883 5883 5884 5884 5884 5884 5885 5885 5885 5885 5886 5886
5888 5887 5887 5886 5885 5884 5883 5882 5882 5881 5880 5880 5879 5879 5878 5878 5878 5878 5878 5878 5878 5878 5879 5879 5880 5880 5881 5881 5881 5882 5882 5882 5882 5882 5883 5883 5883 5883 5883 5884 5884 5884 5884
5887 5886 5885 5884 5883 5882 5882 5881 5880 5879 5878 5878 5877 5877 5877 5877 5876 5876 5876 5877 5877 5877 5877 5878 5878 5878 5879 5879 5880 5880 5880 5881 5881 5881 5881 5882 5882 5882 5882 5882 5882 5882 5883
5885 5884 5883 5882 5881 5880 5879 5878 5878 5877 5876 5876 5875 5875 5875 5875 5875 5875 5875 5875 5875 5875 5876 5876 5876 5877 5877 5877 5878 5878 5879 5879 5879 5879 5880 5880 5880 5880 5880 5880 5880 5881 5881
5883 5882 5881 5880 5879 5878 5877 5876 5875 5874 5874 5873 5873 5872 5872 5873 5873 5873 5873 5873 5873 5873 5874 5874 5875 5875 5876 5876 5876 5877 5877 5877 5878 5878 5878 5878 5878 5878 5878 5878 5879 5879 5879
5881 5880 5878 5877 5876 5875 5874 5874 5873 5872 5871 5871 5870 5869 5869 5870 5871 5871 5871 5871 5871 5872 5872 5873 5873 5874 5874 5874 5874 5875 5875 5876 5876 5876 5877 5877 5877 5877 5877 5877 5877 5877 5877
5878 5877 5876 5874 5873 5872 5871 5871 5870 5869 5868 5868 5867 5867 5867 5868 5868 5868 5869 5869 5869 5870 5870 5871 5871 5872 5872 5873 5873 5873 5874 5874 5874 5875 5875 5875 5875 5875 5875 5875 5875 5875 5875
5875 5874 5872 5871 5870 5868 5867 5867 5866 5865 5864 5864 5864 5864 5864 5865 5865 5866 5866 5867 5867 5867 5868 5868 5869 5869 5870 5870 5871 5871 5872 5872 5872 5873 5873 5873 5872 5873 5873 5873 5873 5873 5873
5871 5870 5869 5868 5866 5865 5864 5864 5863 5862 5860 5860 5860 5860 5861 5861 5862 5862 5863 5864 5865 5865 5865 5866 5866 5867 5868 5868 5868 5869 5870 5870 5870 5870 5870 5870 5870 5870 5870 5870 5871 5871 5871
5867 5866 5865 5864 5863 5861 5860 5860 5859 5858 5857 5856 5856 5856 5857 5858 5858 5859 5860 5861 5861 5862 5863 5863 5864 5864 5865 5865 5866 5866 5867 5867 5868 5868 5868 5868 5868 5868 5868 5868 5868 5868 5868
5863 5862 5861 5860 5859 5858 5856 5856 5855 5854 5853 5853 5852 5852 5853 5853 5854 5855 5856 5857 5858 5858 5859 5860 5861 5862 5862 5863 5863 5864 5864 5864 5865 5865 5865 5865 5865 5865 5865 5865 5865 5865 5865
5859 5858 5857 5856 5855 5853 5852 5852 5851 5850 5849 5849 5848 5848 5848 5849 5850 5851 5852 5853 5853 5855 5856 5857 5858 5859 5859 5860 5860 5861 5861 5861 5862 5862 5862 5862 5862 5862 5862 5862 5862 5862 5861
5855 5854 5853 5851 5850 5849 5848 5847 5846 5846 5845 5844 5844 5844 5844 5845 5845 5846 5847 5848 5849 5850 5852 5853 5854 5855 5856 5857 5857 5858 5858 5859 5859 5859 5859 5859 5859 5858 5859 5859 5858 5858 5858
5850 5849 5848 5847 5846 5845 5844 5843 5842 5841 5841 5840 5840 5840 5840 5840 5840 5841 5842 5843 5844 5846 5847 5848 5849 5851 5852 5853 5854 5855 5855 5855 5855 5856 5856 5855 5855 5855 5855 5855 5855 5855 5854
5845 5844 5843 5842 5841 5840 5839 5838 5837 5837 5836 5836 5835 5835 5835 5835 5836 5836 5837 5838 5840 5841 5842 5844 5845 5846 5847 5849 5850 5850 5851 5852 5852 5852 5852 5852 5852 5852 5852 5851 5851 5851 5850
5840 5839 5838 5837 5836 5835 5834 5833 5833 5832 5831 5831 5831 5831 5831 5831 5831 5832 5832 5834 5835 5836 5838 5839 5840 5841 5843 5844 5845 5846 5847 5847 5848 5848 5849 5849 5849 5849 5848 5848 5847 5846 5846
5834 5834 5833 5832 5831 5830 5829 5828 5828 5827 5826 5826 5826 5826 5826 5827 5827 5827 5828 5829 5830 5831 5833 5834 5835 5836 5838 5839 5840 5842 5843 5843 5844 5844 5845 5845 5845 5845 5844 5844 5843 5842 5841